Regional Weather Roundup
Issued by NWS Newport/Morehead, NC

Current Version | Previous Version | Graphics & Text | Print | Product List | Glossary On
Versions: 1 2 3 4 5 6 7 8 9 10 11 12 13 14 15 16 17 18 19 20 21 22 23 24 25 26 27 28 29 30 31 32 33 34 35 36 37 38 39 40 41 42 43 44 45 46 47 48 49 50
047 ASUS42 KMHX 231513 RWRMHX WEATHER ROUNDUP FOR EASTERN NORTH CAROLINA NATIONAL WEATHER SERVICE NEWPORT/MOREHEAD CITY NC 1100 AM EDT WED MAY 23 2018 NOTE: "FAIR" INDICATES FEW OR NO CLOUDS BELOW 12,000 FEET WITH NO SIGNIFICANT WEATHER AND/OR OBSTRUCTIONS TO VISIBILITY NCZ015>017-031-032-045>047-102-103-231600- NORTH COAST CITY SKY/WX TMP DP RH WIND PRES REMARKS EDENTON PTSUNNY 78 72 79 SW10G16 30.06R ELIZABETH CITY FAIR 80 73 79 SW15G23 30.03S KITTY HAWK FAIR 78 69 74 W9 30.03S MANTEO FAIR 80 70 72 W12 30.05S $$ NCZ045>047-081-094-103-104-231600- CENTRAL COAST CITY SKY/WX TMP DP RH WIND PRES REMARKS FRISCO FAIR 78 72 81 SW13 30.08S $$ NCZ095-097-098-100-101-231600- SOUTHERN COAST CITY SKY/WX TMP DP RH WIND PRES REMARKS BEAUFORT FAIR 79 73 82 SW15 30.09S CEDAR ISLAND NOT AVBL JACKSONVILLE FAIR 81 71 71 W12 30.08S PINEY ISLAND NOT AVBL WILMINGTON FAIR 82 69 64 W13 30.09F $$ NCZ011>013-027>030-043-044-078>080-089-090>093-098-231600- COASTAL PLAIN CITY SKY/WX TMP DP RH WIND PRES REMARKS AHOSKIE PTSUNNY 78 73 85 CALM 30.04S CLINTON PTSUNNY 80 71 74 W12 30.09S ELIZABETHTOWN PTSUNNY 80 70 70 SW13G20 30.10F GOLDSBORO PTSUNNY 79 71 75 SW9 30.06F GREENVILLE PTSUNNY 77 70 78 W10G18 30.08S HAVELOCK PTSUNNY 83 72 69 W15 30.09S KENANSVILLE PTSUNNY 79 70 73 SW8 30.09S KINSTON PTSUNNY 79 70 73 SW10 30.08F NEW BERN PTSUNNY 79 70 74 W8 30.09S RICHLANDS PTSUNNY 81 71 71 SW9G17 30.09S ROCKY MOUNT FAIR 79 70 74 SW12 30.05F WASHINGTON PTSUNNY 79 70 73 SW6G17 30.07S WHITEVILLE FAIR 80 69 69 SW7 30.10F $$ AMZ130-135-150-152-154-156-158-170-250-252-270-ANZ085-086-088-633-658-670-231600- MARINE OBSERVATIONS STATION/POSITION TIME TEMP WIND PRES WAVE SWELL AIR SEA DIR/SP/G HT/PER HT/PER (UTC) (F) (DEG/KT/KT) (MB) (FT/S) (FT/S) CHESAPEAKE LIGHT NOT AVBL 64 E VA BEACH 1450 71 68 230/ 16/ 17 1016.5 4/ 5 2/ 8 DUCK 1442 76 63 240/ 16/ 20 1016.6 2 E DUCK 1430 66 N/A 2/ 8 OREGON INLET 1442 230/ 13/ 15 1017.2 13E OREGON INLT 1448 65 N/A 3/ 5 2/ 8 HATTERAS CG 1442 76 74 220/ 13/ 17 1018.1 DIAMOND BUOY 1500 75 74 240/ 16/ 17 1019.1 CAPE LOOKOUT 1500 220/ 12/ 17 1019.3 BEAUFORT LAB 1442 78 77 230/ 5/ 13 1019.2 30 SE NEW RVR IN 1408 75 240/ 10/ 14 1019.7 30 SE NEW RVR IN 1430 75 N/A 4/ 8 27 SE WRIGHTSVLE 1408 75 75 240/ 14/ 21 1019.8 5 SE WRIGHTSVLE 1408 74 73 320/ 8/ 12 1018.8 225 S CAPE HAT 1450 78 210/ 10/ 12 1021.7 3/ 8 3/ 8 41 SE CHARLESTON 1450 74 230/ 8/ 10 1020.7 3/ 9 3/ 9 $$

USA.gov is the U.S. government's official web portal to all federal, state and local government web resources and services.